[[{"header":{"parameterUnit":"m.s-1","parameterCategory":2,"la1":30.2991,"la2":30.254,"lo1":-89.0895,"lo2":-89.0444,"dy":0.0017,"dx":0.0017,"nx":28,"ny":28,"refTime":"2024-11-30T03:00:00:Z","depth":"0","parameterNumber":2,"parameterNumberName":"U-component_of_CURRENTS"},"data":[0,0,0,0,0,0,0,0,0,0,0,0,0,0,0,0,0,0,0,0,0,0,0,0,0,0,0,0,0,0,0,0,0,0,0,0,0,0,0,0,0,0,0,0,0,0,0,0,0,0,0,0,0,0,0,0,0,0,0.2191,0.2191,0,0.2222,0.2222,0.2223,0.222,0.222,0.2219,0.2219,0.2227,0.2228,0.2228,0,0,0,0,0,0,0,0,0,0,0,0,0,0.2145,0.2145,0.2191,0.2191,0.2192,0.2222,0.2222,0.2223,0.222,0.222,0.2219,0.2219,0.2227,0.2228,0.2228,0,0,0,0,0,0,0,0,0,0,0,0,0,0.2167,0.2145,0.219,0.2196,0.2197,0.2222,0.2222,0.2223,0.222,0.222,0.2219,0.2219,0.2227,0.2228,0.2228,0.2241,0,0,0.223,0.2231,0,0,0,0,0,0,0,0,0.2166,0.2169,0.2194,0.2195,0.2197,0.2219,0.2209,0.2228,0.222,0.2209,0.2219,0.2219,0.2224,0.2225,0.2229,0.2241,0.2242,0.2231,0.2231,0.2231,0.2231,0,0,0,0,0,0,0,0.2164,0.2167,0.2201,0.2195,0.2197,0.2203,0.2205,0.2213,0.2216,0.221,0.221,0.2218,0.2224,0.2228,0.2229,0.2242,0.223,0.2231,0.2232,0.2232,0.2285,0.2286,0,0,0,0,0,0,0.2165,0.2166,0.22,0.2202,0.2182,0.2204,0.2206,0.221,0.2217,0.2218,0.2218,0.2217,0.2227,0.2228,0.2229,0.227,0.2231,0.2232,0.2232,0.2284,0.2286,0.2287,0,0,0,0,0,0,0.2163,0.2167,0.2199,0.2187,0.2191,0.2205,0.221,0.2211,0.2217,0.2223,0.2224,0.2223,0.2227,0.2228,0.2245,0.2269,0.2232,0.2233,0.2283,0.2285,0.2286,0.2334,0,0,0,0,0,0,0.2162,0.2166,0.2168,0.2186,0.2192,0.2218,0.221,0.2212,0.2224,0.2223,0.2228,0.2228,0.2227,0.2244,0.2246,0.2269,0.2233,0.2282,0.2284,0.2286,0.2331,0.2337,0.2342,0,0,0,0,0,0.216,0.2166,0.2168,0.2173,0.2194,0.2219,0.2222,0.2229,0.2224,0.2232,0.2237,0.2228,0.2257,0.2246,0.2247,0.2271,0.2281,0.2283,0.2285,0.2329,0.2336,0.2342,0,0,0,0,0,0,0.2151,0.2167,0.217,0.2181,0.2201,0.2219,0.2228,0.2232,0.2243,0.2241,0.224,0.2242,0.2267,0.2261,0.2248,0.2292,0.2268,0.2271,0.23,0.2307,0.2312,0.2295,0.2234,0,0,0,0,0,0.215,0.2154,0.2177,0.2186,0.2197,0.2212,0.2222,0.223,0.2243,0.2247,0.2251,0.226,0.2278,0.2285,0.2295,0.2318,0.2322,0.2334,0.234,0.2344,0.2332,0.2379,0.2387,0.2294,0.2294,0.2294,0,0,0.2148,0.2159,0.2161,0.2184,0.2198,0.2219,0.2217,0.2237,0.2251,0.2246,0.2264,0.2278,0.2288,0.2317,0.2327,0.2315,0.2374,0.2347,0.2351,0.2336,0.2382,0.2391,0.2399,0.2296,0.2295,0.2295,0,0,0.215,0.2159,0.2165,0.2184,0.2209,0.2224,0.2231,0.2254,0.2261,0.2285,0.229,0.2315,0.2334,0.2351,0.2362,0.2401,0.2402,0.2409,0.2423,0.247,0.2478,0.2485,0.2508,0.2516,0.2411,0.2411,0.2411,0,0.215,0.2157,0.2172,0.2189,0.2203,0.2227,0.2242,0.2261,0.2285,0.2298,0.2294,0.2345,0.2351,0.2395,0.2407,0.2413,0.2432,0.24,0.2477,0.2484,0.2491,0.2512,0.2521,0.2414,0.2414,0.2413,0.2413,0,0.2158,0.2166,0.2175,0.22,0.2221,0.2238,0.2269,0.2291,0.2305,0.2325,0.2368,0.2387,0.2416,0.2431,0.2427,0.2481,0.2478,0.2481,0.2461,0.2503,0.2523,0.2532,0.2418,0.2417,0.2416,0.2415,0,0,0.2145,0.2173,0.2174,0.2182,0.2224,0.224,0.2277,0.2314,0.2342,0.2373,0.2411,0.2445,0.246,0.2471,0.2485,0.2518,0.258,0.2516,0.2517,0.2537,0.2674,0.2582,0.2583,0.2607,0.2609,0.261,0.2672,0,0.2144,0.2158,0.218,0.2202,0.2212,0.2251,0.2285,0.2327,0.2363,0.241,0.2446,0.2488,0.2477,0.2501,0.2534,0.2573,0.2603,0.2561,0.2629,0.263,0.2544,0.259,0.2427,0.2461,0.268,0.2681,0.2682,0,0.2137,0.2148,0.2157,0.2193,0.2204,0.2227,0.2284,0.2318,0.2397,0.2428,0.2482,0.252,0.2576,0.2561,0.2641,0.262,0.2641,0.2663,0.2667,0.2564,0.2554,0.2453,0.2468,0.2376,0.2695,0.2694,0.2693,0,0.2098,0.213,0.2129,0.2142,0.2194,0.2211,0.2245,0.2319,0.2358,0.2443,0.2493,0.2562,0.2605,0.2654,0.2694,0.2681,0.2777,0.2771,0.2706,0.27,0.2561,0.2539,0.2488,0.2821,0.2821,0.2821,0.2821,0,0.2076,0.2076,0.2109,0.211,0.2131,0.2179,0.222,0.2271,0.2356,0.2416,0.2494,0.2554,0.2633,0.27,0.2723,0.2736,0.2806,0.2705,0.2712,0.2572,0.2551,0.2463,0.2439,0.2823,0.2823,0.2822,0.2822,0,0.2024,0.2044,0.205,0.2093,0.2108,0.2122,0.2197,0.2236,0.2323,0.2408,0.2443,0.2563,0.2642,0.2711,0.2792,0.2761,0.2692,0.2779,0.2592,0.2574,0.2386,0.237,0.2255,0.219,0.2706,0.2704,0.2703,0,0.1993,0.1988,0.2023,0.2031,0.2047,0.208,0.2113,0.2202,0.2253,0.2408,0.2448,0.2561,0.2634,0.271,0.2672,0.269,0.2633,0.2537,0.2466,0.2345,0.2336,0.2266,0.2216,0.2314,0.2309,0.2305,0.2302,0,0.1942,0.1954,0.1964,0.198,0.2003,0.2034,0.2087,0.2125,0.2245,0.233,0.2439,0.2515,0.257,0.2503,0.2505,0.2491,0.2366,0.2456,0.2391,0.2061,0.1923,0.1873,0.2301,0.2268,0.2272,0.2274,0.2276,0.2277,0.1905,0.1901,0.1918,0.1928,0.1954,0.1979,0.1993,0.207,0.2145,0.225,0.2353,0.2399,0.2346,0.2311,0.2284,0.2069,0.2131,0.1965,0.1971,0.1924,0.1795,0.2127,0.2063,0.2065,0.2067,0.2068,0.207,0,0.1858,0.186,0.1868,0.1882,0.1885,0.192,0.1972,0.198,0.2042,0.2124,0.22,0.2103,0.2002,0.1935,0.1715,0.1596,0.1537,0.154,0.1411,0.1402,0.1743,0.1656,0.1425,0.1425,0.1425,0.1425,0.1425,0.1426,0.1836,0.182,0.1821,0.1805,0.1816,0.1806,0.1821,0.1848,0.1881,0.1857,0.1793,0.1787,0.1685,0.1478,0.1271,0.1238,0.1148,0.1049,0.1119,0.1354,0.1395,0.1433,0.1345,0.1052,0.1051,0.0677,0.0674,0.0672]},{"header":{"parameterUnit":"m.s-1","parameterCategory":2,"la1":30.2991,"la2":30.254,"lo1":-89.0895,"lo2":-89.0444,"dy":0.0017,"dx":0.0017,"nx":28,"ny":28,"refTime":"2024-11-30T03:00:00:Z","depth":"0","parameterNumber":3,"parameterNumberName":"V-component_of_CURRENTS"},"data":[0,0,0,0,0,0,0,0,0,0,0,0,0,0,0,0,0,0,0,0,0,0,0,0,0,0,0,0,0,0,0,0,0,0,0,0,0,0,0,0,0,0,0,0,0,0,0,0,0,0,0,0,0,0,0,0,0,0,-0.0118,-0.0118,0,-0.0155,-0.0155,-0.0156,-0.0173,-0.0173,-0.0173,-0.0173,-0.0205,-0.0205,-0.0206,0,0,0,0,0,0,0,0,0,0,0,0,0,-0.0075,-0.0075,-0.0117,-0.0118,-0.0118,-0.0155,-0.0155,-0.0156,-0.0173,-0.0173,-0.0173,-0.0173,-0.0204,-0.0205,-0.0206,0,0,0,0,0,0,0,0,0,0,0,0,0,-0.0101,-0.0076,-0.0117,-0.0131,-0.0132,-0.0154,-0.0155,-0.0156,-0.0173,-0.0173,-0.0173,-0.0173,-0.0204,-0.0205,-0.0207,-0.0217,0,0,-0.0211,-0.0211,0,0,0,0,0,0,0,0,-0.01,-0.0103,-0.0129,-0.013,-0.0132,-0.0159,-0.0152,-0.0176,-0.0173,-0.0158,-0.0173,-0.0173,-0.0189,-0.0191,-0.0199,-0.0219,-0.022,-0.0211,-0.0212,-0.0212,-0.0213,0,0,0,0,0,0,0,-0.0098,-0.0101,-0.0133,-0.0129,-0.0131,-0.014,-0.0143,-0.0157,-0.0174,-0.0159,-0.0161,-0.0164,-0.0189,-0.0198,-0.02,-0.0221,-0.0211,-0.0212,-0.0213,-0.0214,-0.0236,-0.0235,0,0,0,0,0,0,-0.0092,-0.01,-0.0131,-0.0134,-0.0115,-0.0141,-0.0145,-0.015,-0.0174,-0.0177,-0.0164,-0.0165,-0.0195,-0.0198,-0.0201,-0.0196,-0.0212,-0.0214,-0.0214,-0.0236,-0.0236,-0.0235,0,0,0,0,0,0,-0.0091,-0.0094,-0.013,-0.0117,-0.0122,-0.0141,-0.0148,-0.0151,-0.0157,-0.0177,-0.0181,-0.0166,-0.0195,-0.0199,-0.0207,-0.0198,-0.0214,-0.0216,-0.0236,-0.0236,-0.0235,-0.0198,0,0,0,0,0,0,-0.009,-0.0094,-0.0095,-0.0117,-0.0123,-0.0136,-0.0148,-0.0152,-0.0159,-0.016,-0.018,-0.0183,-0.0196,-0.0205,-0.0209,-0.02,-0.0217,-0.0236,-0.0236,-0.0236,-0.0199,-0.0196,-0.0194,0,0,0,0,0,-0.0088,-0.0087,-0.0095,-0.0099,-0.0124,-0.0135,-0.0139,-0.0153,-0.0159,-0.0158,-0.0172,-0.0182,-0.0205,-0.0206,-0.021,-0.0202,-0.0237,-0.0236,-0.0236,-0.0201,-0.0197,-0.0194,0,0,0,0,0,0,-0.007,-0.009,-0.0098,-0.0104,-0.0116,-0.0138,-0.0138,-0.015,-0.0161,-0.0162,-0.0181,-0.0185,-0.0189,-0.0202,-0.0203,-0.0207,-0.0222,-0.0222,-0.0194,-0.019,-0.0188,-0.0162,-0.0218,0,0,0,0,0,-0.0067,-0.0071,-0.0091,-0.0095,-0.0099,-0.0119,-0.0125,-0.0135,-0.0149,-0.0154,-0.0168,-0.0181,-0.0191,-0.0195,-0.0208,-0.0211,-0.0209,-0.0208,-0.0205,-0.0203,-0.0185,-0.0176,-0.017,-0.0234,-0.0234,-0.0234,0,0,-0.0062,-0.0073,-0.0076,-0.0091,-0.0102,-0.0097,-0.0122,-0.0129,-0.0122,-0.0155,-0.0151,-0.0173,-0.0191,-0.0193,-0.0196,-0.0201,-0.0185,-0.0202,-0.0199,-0.0182,-0.0174,-0.0168,-0.0162,-0.0233,-0.0233,-0.0233,0,0,-0.0045,-0.0062,-0.0055,-0.0061,-0.0073,-0.0084,-0.0083,-0.0102,-0.0107,-0.0112,-0.0132,-0.0142,-0.0163,-0.0167,-0.0173,-0.0161,-0.0172,-0.0173,-0.0135,-0.0127,-0.0121,-0.0116,-0.011,-0.0105,-0.017,-0.0169,-0.0169,0,-0.0036,-0.003,-0.0054,-0.0044,-0.0041,-0.0072,-0.0056,-0.0067,-0.0086,-0.008,-0.0103,-0.012,-0.0144,-0.0131,-0.0134,-0.0152,-0.0152,-0.0147,-0.0121,-0.0116,-0.0112,-0.0107,-0.0102,-0.0168,-0.0168,-0.0168,-0.0168,0,-0.0009,-0.0003,0.0002,0.0006,0.0005,0.0011,-0.0004,-0.0008,-0.0023,-0.0028,-0.0026,-0.0062,-0.0067,-0.0084,-0.0108,-0.0088,-0.0101,-0.012,-0.0126,-0.0102,-0.01,-0.0095,-0.0165,-0.0166,-0.0166,-0.0167,0,0,0.0012,0.0021,0.0025,0.0042,0.0034,0.004,0.0047,0.0057,0.0077,0.0047,0.0077,0.0038,0.0017,0.0009,-0.0026,-0.0026,-0.001,-0.006,-0.006,-0.0047,0.0008,-0.0005,-0.0001,-0.0027,-0.0026,-0.0025,-0.0005,0,0.0046,0.0082,0.0075,0.0113,0.0133,0.0112,0.0129,0.0131,0.0124,0.0142,0.0111,0.0121,0.0054,0.0051,0.0037,0.0006,0.0006,-0.0013,-0.0023,-0.0023,-0.0031,0.0006,0.0041,0.0062,-0.0,0.0001,0.0001,0,0.0082,0.0103,0.0147,0.018,0.0187,0.0201,0.023,0.0242,0.0252,0.0248,0.0244,0.0219,0.021,0.0151,0.0116,0.0105,0.0063,0.0035,0.0034,0.0018,-0.0025,0.0028,0.0073,0.0028,0.0009,0.0008,0.0008,0,0.0122,0.0158,0.0199,0.0207,0.0232,0.0249,0.0264,0.0277,0.0306,0.0324,0.0348,0.0322,0.0318,0.0266,0.0182,0.0155,0.0152,0.0108,0.0063,0.0061,0.009,0.0088,0.0101,0.0101,0.0101,0.0101,0.0101,0,0.0165,0.02,0.0221,0.0243,0.03,0.0298,0.0357,0.0364,0.0395,0.045,0.0408,0.0439,0.0346,0.032,0.0235,0.017,0.0191,0.0089,0.0074,0.0101,0.0101,0.006,0.002,0.0102,0.0101,0.0101,0.0101,0,0.0205,0.0217,0.0268,0.0303,0.0319,0.0361,0.0417,0.0459,0.0479,0.0547,0.056,0.054,0.0509,0.0419,0.0345,0.0246,0.0161,0.0154,0.0189,0.0177,0.0078,0.0038,0.004,0.0011,0.0114,0.0114,0.0114,0,0.0229,0.0258,0.0314,0.035,0.0367,0.0426,0.0468,0.0499,0.0547,0.0611,0.065,0.0645,0.0657,0.0542,0.0392,0.0275,0.0192,0.0198,0.0149,0.0098,0.0043,0.0015,-0.0012,0.02,0.02,0.0201,0.0201,0,0.0276,0.0292,0.0332,0.0402,0.0452,0.0518,0.0579,0.0629,0.0676,0.0743,0.0809,0.0833,0.0737,0.0642,0.0468,0.0363,0.0178,0.0203,0.0154,0.0123,0.0094,0.005,0.0152,0.0206,0.0206,0.0205,0.0205,0.0205,0.0308,0.0343,0.0388,0.0456,0.0517,0.0588,0.0646,0.0722,0.0814,0.0919,0.0931,0.1006,0.0859,0.0639,0.049,0.0242,0.0218,0.0164,0.0124,0.0104,0.0069,0.0176,0.0204,0.0203,0.0203,0.0203,0.0202,0,0.0341,0.0376,0.044,0.0513,0.0577,0.0604,0.0703,0.0768,0.0882,0.1015,0.1097,0.1098,0.0933,0.0706,0.0381,0.0208,0.0128,0.0108,0.009,0.0065,0.0177,0.0174,0.0193,0.0193,0.0193,0.0193,0.0193,0.0193,0.0358,0.041,0.0437,0.0537,0.0593,0.0675,0.0729,0.0843,0.0954,0.112,0.1203,0.1252,0.1088,0.0597,0.0258,0.0158,0.0033,0.0011,-0.0067,0.0019,0.0021,0.0024,0.0012,-0.0002,-0.0003,-0.0141,-0.0143,-0.0144]}],[{"header":{"parameterUnit":"m.s-1","parameterCategory":2,"la1":30.2991,"la2":30.254,"lo1":-89.0895,"lo2":-89.0444,"dy":0.0017,"dx":0.0017,"nx":28,"ny":28,"refTime":"2024-11-30T03:00:00:Z","depth":"2","parameterNumber":2,"parameterNumberName":"U-component_of_CURRENTS"},"data":[0,0,0,0,0,0,0,0,0,0,0,0,0,0,0,0,0,0,0,0,0,0,0,0,0,0,0,0,0,0,0,0,0,0,0,0,0,0,0,0,0,0,0,0,0,0,0,0,0,0,0,0,0,0,0,0,0,0,0.1718,0.1718,0,0.1737,0.1737,0.1737,0.1732,0.1732,0.1732,0.1732,0.1741,0.1742,0.1742,0,0,0,0,0,0,0,0,0,0,0,0,0,0.171,0.1709,0.1718,0.1718,0.1719,0.1737,0.1737,0.1737,0.1732,0.1732,0.1732,0.1732,0.1741,0.1741,0.1742,0,0,0,0,0,0,0,0,0,0,0,0,0,0.1715,0.1709,0.1718,0.1722,0.1722,0.1737,0.1737,0.1736,0.1732,0.1732,0.1732,0.1732,0.1741,0.1741,0.1742,0.1745,0,0,0.1743,0.1743,0,0,0,0,0,0,0,0,0.1715,0.1715,0.172,0.1721,0.1722,0.1735,0.1738,0.174,0.1732,0.1724,0.1732,0.1732,0.1741,0.1741,0.1739,0.1745,0.1745,0.1743,0.1743,0.1744,0.1744,0,0,0,0,0,0,0,0.1715,0.1715,0.1721,0.1721,0.1722,0.1734,0.1734,0.1738,0.1729,0.1725,0.1725,0.1734,0.1741,0.1739,0.174,0.1746,0.1743,0.1743,0.1744,0.1744,0.1801,0.1802,0,0,0,0,0,0,0.1719,0.1714,0.1721,0.1722,0.1723,0.1734,0.1734,0.1728,0.1729,0.1731,0.1734,0.1734,0.1738,0.1739,0.174,0.178,0.1744,0.1744,0.1744,0.18,0.1801,0.1802,0,0,0,0,0,0,0.1718,0.1718,0.172,0.1723,0.1724,0.1734,0.1728,0.1728,0.1734,0.1737,0.1737,0.174,0.1738,0.174,0.1753,0.1779,0.1744,0.1744,0.1798,0.18,0.1802,0.1837,0,0,0,0,0,0,0.1717,0.1717,0.1722,0.1722,0.1724,0.1732,0.1728,0.1729,0.1741,0.1741,0.1743,0.1743,0.1739,0.1752,0.1753,0.1779,0.1745,0.1796,0.1799,0.1801,0.1834,0.1839,0.1844,0,0,0,0,0,0.1717,0.172,0.1722,0.1723,0.1727,0.1733,0.1734,0.174,0.1742,0.1744,0.175,0.1744,0.1769,0.1753,0.1754,0.1781,0.1795,0.1798,0.1801,0.1832,0.1838,0.1844,0,0,0,0,0,0,0.1721,0.1721,0.1722,0.1726,0.1732,0.1734,0.1743,0.1746,0.1751,0.1757,0.1752,0.1753,0.1778,0.1774,0.1757,0.1806,0.1784,0.1788,0.1808,0.1814,0.1819,0.1814,0.1745,0,0,0,0,0,0.1725,0.1724,0.1728,0.1733,0.1736,0.1741,0.1748,0.1753,0.1758,0.176,0.1763,0.1774,0.1789,0.1796,0.1806,0.1826,0.1828,0.1847,0.1852,0.1857,0.1855,0.1885,0.1892,0.1812,0.1812,0.1812,0,0,0.1729,0.173,0.1731,0.1735,0.1738,0.1747,0.1743,0.1758,0.177,0.1762,0.1779,0.1791,0.1799,0.1825,0.1836,0.1825,0.1883,0.186,0.1864,0.1859,0.1889,0.1896,0.1903,0.1814,0.1813,0.1813,0,0,0.1736,0.1736,0.1738,0.1744,0.1759,0.1763,0.1769,0.1777,0.1785,0.1806,0.1809,0.1834,0.185,0.1864,0.1873,0.1913,0.1909,0.1922,0.1943,0.1973,0.198,0.1986,0.2002,0.2009,0.1925,0.1925,0.1925,0,0.1746,0.1741,0.1742,0.1749,0.1757,0.1769,0.1777,0.1789,0.1805,0.1821,0.1818,0.1866,0.1871,0.1908,0.1922,0.1925,0.1935,0.1917,0.1979,0.1985,0.1991,0.2006,0.2013,0.1927,0.1927,0.1926,0.1926,0,0.1749,0.1753,0.1756,0.1764,0.1775,0.1785,0.1801,0.1821,0.1837,0.1856,0.19,0.1911,0.1941,0.1953,0.1947,0.1994,0.1987,0.1982,0.196,0.2001,0.2015,0.2022,0.193,0.1929,0.1928,0.1928,0,0,0.1748,0.1756,0.1758,0.1761,0.1783,0.1789,0.1819,0.1847,0.1874,0.1906,0.194,0.1976,0.1993,0.2004,0.201,0.2032,0.2078,0.2022,0.2023,0.2033,0.2138,0.2061,0.2061,0.2085,0.2087,0.2088,0.2134,0,0.175,0.1756,0.1764,0.1778,0.178,0.1805,0.183,0.1866,0.1898,0.1936,0.1974,0.2011,0.201,0.203,0.2056,0.2075,0.2097,0.2065,0.2102,0.2103,0.2025,0.2067,0.1876,0.1894,0.214,0.2141,0.2142,0,0.1745,0.175,0.1757,0.1778,0.1782,0.1799,0.1842,0.1871,0.1936,0.1963,0.2017,0.2044,0.2096,0.208,0.2144,0.2125,0.2133,0.2141,0.2144,0.2061,0.2039,0.1894,0.1897,0.2153,0.2153,0.2152,0.2151,0,0.1727,0.1744,0.1746,0.1752,0.1782,0.1799,0.1826,0.1885,0.1916,0.1987,0.2023,0.2085,0.2121,0.2154,0.2179,0.2169,0.2232,0.2223,0.2162,0.2156,0.1994,0.1971,0.2259,0.2259,0.2259,0.2258,0.2258,0,0.1714,0.1717,0.1738,0.1739,0.1758,0.1789,0.1826,0.1866,0.193,0.197,0.2039,0.2073,0.2141,0.2184,0.2197,0.2201,0.2255,0.2169,0.2166,0.2,0.1979,0.22,0.2193,0.226,0.226,0.2259,0.2259,0,0.1687,0.1699,0.1704,0.1734,0.1746,0.1763,0.1818,0.1846,0.1918,0.1971,0.1997,0.2084,0.2138,0.2189,0.2238,0.2218,0.2231,0.2212,0.2006,0.1977,0.2131,0.2125,0.2159,0.2156,0.2154,0.2153,0.2151,0,0.1668,0.1668,0.1692,0.1696,0.1708,0.174,0.1761,0.1831,0.1858,0.1964,0.198,0.2062,0.2084,0.2139,0.2119,0.2127,0.2192,0.1948,0.189,0.2128,0.2123,0.212,0.2117,0.1695,0.169,0.1686,0.1682,0,0.1637,0.1648,0.1653,0.166,0.1674,0.1689,0.1724,0.174,0.182,0.1859,0.19,0.1929,0.1983,0.1896,0.1912,0.1893,0.1933,0.1864,0.2178,0.1745,0.1693,0.1687,0.1699,0.1646,0.165,0.1652,0.1654,0.1656,0.1614,0.1607,0.1613,0.1613,0.1627,0.162,0.1608,0.1637,0.1654,0.1677,0.1758,0.1735,0.1752,0.1673,0.1621,0.1584,0.1729,0.1643,0.1655,0.1672,0.1605,0.1552,0.1466,0.1468,0.147,0.1472,0.1474,0,0.1572,0.1566,0.1564,0.155,0.1528,0.1565,0.1564,0.152,0.1489,0.1521,0.1527,0.1382,0.1321,0.1353,0.123,0.1226,0.1213,0.1177,0.114,0.1177,0.121,0.1119,0.0851,0.0849,0.0848,0.0846,0,0,0.155,0.1521,0.1509,0.1448,0.1443,0.1386,0.1366,0.131,0.1294,0.1218,0.1181,0.1269,0.1304,0.1065,0.1028,0.0916,0.1043,0.0875,0.1374,0.1367,0.1398,0.1475,0.1376,0,0,0,0,0]},{"header":{"parameterUnit":"m.s-1","parameterCategory":2,"la1":30.2991,"la2":30.254,"lo1":-89.0895,"lo2":-89.0444,"dy":0.0017,"dx":0.0017,"nx":28,"ny":28,"refTime":"2024-11-30T03:00:00:Z","depth":"2","parameterNumber":3,"parameterNumberName":"V-component_of_CURRENTS"},"data":[0,0,0,0,0,0,0,0,0,0,0,0,0,0,0,0,0,0,0,0,0,0,0,0,0,0,0,0,0,0,0,0,0,0,0,0,0,0,0,0,0,0,0,0,0,0,0,0,0,0,0,0,0,0,0,0,0,0,0.0161,0.016,0,0.0141,0.014,0.014,0.0122,0.0122,0.0121,0.0121,0.01,0.0099,0.0099,0,0,0,0,0,0,0,0,0,0,0,0,0,0.0167,0.0167,0.0161,0.016,0.016,0.0141,0.014,0.014,0.0122,0.0122,0.0121,0.0121,0.01,0.0099,0.0099,0,0,0,0,0,0,0,0,0,0,0,0,0,0.0158,0.0167,0.0161,0.0148,0.0147,0.0141,0.014,0.014,0.0122,0.0122,0.0121,0.0121,0.01,0.0099,0.0099,0.0104,0,0,0.0097,0.0097,0,0,0,0,0,0,0,0,0.0158,0.0157,0.015,0.0149,0.0147,0.0133,0.0134,0.0128,0.0122,0.0132,0.0121,0.0121,0.011,0.0109,0.0107,0.0103,0.0102,0.0097,0.0097,0.0097,0.0097,0,0,0,0,0,0,0,0.0159,0.0158,0.0153,0.015,0.0148,0.0138,0.0136,0.0133,0.0124,0.0131,0.013,0.0127,0.011,0.0108,0.0106,0.0102,0.0097,0.0097,0.0097,0.0096,0.0095,0.0095,0,0,0,0,0,0,0.0162,0.0159,0.0154,0.0153,0.0151,0.0138,0.0136,0.0138,0.0124,0.0121,0.0127,0.0126,0.0109,0.0107,0.0106,0.0114,0.0097,0.0096,0.0096,0.0095,0.0095,0.0095,0,0,0,0,0,0,0.0162,0.0162,0.0155,0.0154,0.0153,0.0138,0.0141,0.0138,0.0135,0.0121,0.0118,0.0126,0.0108,0.0106,0.0107,0.0113,0.0096,0.0096,0.0094,0.0095,0.0095,0.013,0,0,0,0,0,0,0.0162,0.0162,0.0164,0.0155,0.0153,0.0156,0.0141,0.0138,0.0134,0.0132,0.012,0.0117,0.0108,0.0108,0.0107,0.0112,0.0095,0.0094,0.0095,0.0095,0.0128,0.0131,0.0134,0,0,0,0,0,0.0163,0.017,0.0164,0.0164,0.0157,0.0156,0.0155,0.0143,0.0134,0.0138,0.0129,0.0118,0.011,0.0108,0.0107,0.0112,0.0094,0.0094,0.0095,0.0127,0.0131,0.0134,0,0,0,0,0,0,0.0172,0.0168,0.0162,0.0167,0.0163,0.0153,0.0155,0.0146,0.0142,0.0139,0.0125,0.0122,0.0123,0.0114,0.0112,0.0112,0.0098,0.0098,0.0123,0.0127,0.0129,0.0141,0.0095,0,0,0,0,0,0.0176,0.018,0.0174,0.0177,0.0177,0.0166,0.0164,0.0156,0.015,0.0147,0.014,0.013,0.0125,0.0123,0.0116,0.012,0.011,0.0121,0.0124,0.0126,0.0134,0.0128,0.0131,0.0097,0.0097,0.0097,0,0,0.0179,0.0178,0.0179,0.0179,0.0175,0.0184,0.0164,0.0163,0.0169,0.0146,0.0154,0.014,0.0128,0.0131,0.013,0.0124,0.0129,0.0127,0.0129,0.0136,0.0129,0.0132,0.0135,0.0097,0.0097,0.0097,0,0,0.0192,0.0189,0.0199,0.0201,0.0198,0.0194,0.0196,0.0189,0.0185,0.0189,0.0172,0.0166,0.0159,0.0152,0.0147,0.0162,0.0143,0.0155,0.0181,0.0175,0.0177,0.018,0.0166,0.0167,0.0158,0.0158,0.0158,0,0.0195,0.0209,0.0202,0.0215,0.022,0.0202,0.0217,0.0213,0.0207,0.0211,0.0196,0.0187,0.0171,0.0178,0.0179,0.0169,0.016,0.017,0.0179,0.0181,0.0183,0.0168,0.0169,0.0159,0.0159,0.0159,0.0159,0,0.0219,0.023,0.0238,0.025,0.0256,0.0264,0.0261,0.0264,0.0254,0.0251,0.0253,0.023,0.0226,0.0215,0.02,0.0207,0.0194,0.0183,0.0173,0.0189,0.0172,0.0172,0.0162,0.0161,0.0161,0.016,0,0,0.0228,0.0251,0.0253,0.0269,0.0276,0.0286,0.0298,0.0309,0.0324,0.0307,0.0324,0.0301,0.0284,0.0277,0.0254,0.0245,0.0241,0.0221,0.022,0.0211,0.0223,0.021,0.0209,0.0232,0.0232,0.0233,0.0204,0,0.025,0.0285,0.0289,0.0322,0.0341,0.0337,0.0357,0.0363,0.0361,0.0373,0.0346,0.0351,0.0309,0.0306,0.0289,0.0258,0.0243,0.0249,0.0205,0.0204,0.0194,0.021,0.023,0.0206,0.0204,0.0204,0.0204,0,0.0273,0.0296,0.0333,0.0368,0.0377,0.0393,0.0424,0.0439,0.0448,0.0447,0.0439,0.0418,0.0401,0.0362,0.0314,0.032,0.0274,0.0243,0.0241,0.022,0.0192,0.019,0.0206,0.0203,0.0203,0.0203,0.0203,0,0.0291,0.0327,0.0361,0.0372,0.0407,0.0424,0.0443,0.0462,0.0489,0.0496,0.0513,0.0481,0.0473,0.0416,0.0341,0.033,0.0287,0.0264,0.0209,0.0207,0.0211,0.0209,0.023,0.023,0.023,0.023,0.023,0,0.0315,0.0341,0.0372,0.0392,0.044,0.0453,0.0504,0.0516,0.0546,0.0592,0.0553,0.0574,0.0487,0.0448,0.0368,0.0292,0.0306,0.022,0.0203,0.0222,0.0222,0.021,0.0208,0.0229,0.023,0.023,0.023,0,0.033,0.0348,0.0391,0.0433,0.045,0.0485,0.0548,0.0588,0.0608,0.0665,0.0671,0.0649,0.0602,0.0509,0.0419,0.0337,0.026,0.0226,0.0249,0.0236,0.0174,0.0174,0.0166,0.0165,0.0165,0.0164,0.0164,0,0.0341,0.0364,0.0421,0.0454,0.0475,0.0531,0.0577,0.0614,0.0663,0.0716,0.0748,0.0719,0.071,0.057,0.0432,0.0299,0.0267,0.0212,0.0193,0.0185,0.017,0.0171,0.0171,0.0208,0.0208,0.0208,0.0208,0,0.0365,0.0383,0.0421,0.0488,0.0539,0.0606,0.0672,0.0721,0.0778,0.0825,0.0876,0.0872,0.0751,0.0627,0.044,0.0344,0.0235,0.0208,0.0205,0.0221,0.0222,0.0208,0.0208,0.0208,0.0208,0.0208,0.0208,0.0208,0.0383,0.0413,0.0462,0.0527,0.0589,0.0672,0.0737,0.0811,0.0896,0.0971,0.0961,0.0952,0.0813,0.0579,0.042,0.0243,0.0254,0.0177,0.0178,0.0178,0.0189,0.0189,0.017,0.017,0.017,0.017,0.0169,0,0.0406,0.0442,0.0501,0.058,0.065,0.0682,0.0796,0.0864,0.0968,0.1016,0.1052,0.0908,0.0775,0.0599,0.0354,0.0208,0.0192,0.0141,0.0162,0.0164,0.0165,0.0174,0.0152,0.0151,0.0151,0.015,0,0,0.042,0.0473,0.0503,0.0613,0.0674,0.0779,0.0849,0.0949,0.1007,0.1053,0.1038,0.1018,0.0821,0.0632,0.0444,0.0298,0.0256,0.0259,0.0293,0.0344,0.0346,0.021,0.0229,0,0,0,0,0]}],[{"header":{"parameterUnit":"m.s-1","parameterCategory":2,"la1":30.2991,"la2":30.254,"lo1":-89.0895,"lo2":-89.0444,"dy":0.0017,"dx":0.0017,"nx":28,"ny":28,"refTime":"2024-11-30T03:00:00:Z","depth":"4","parameterNumber":2,"parameterNumberName":"U-component_of_CURRENTS"},"data":[0,0,0,0,0,0,0,0,0,0,0,0,0,0,0,0,0,0,0,0,0,0,0,0,0,0,0,0,0,0,0,0,0,0,0,0,0,0,0,0,0,0,0,0,0,0,0,0,0,0,0,0,0,0,0,0,0,0,0.0963,0.0963,0,0.0962,0.0962,0.0962,0.0987,0.0987,0.0988,0.0989,0.1021,0.1021,0.1021,0,0,0,0,0,0,0,0,0,0,0,0,0,0.0979,0.0979,0.0963,0.0963,0.0963,0.0962,0.0962,0.0962,0.0987,0.0987,0.0988,0.0989,0.1021,0.1021,0.1021,0,0,0,0,0,0,0,0,0,0,0,0,0,0.0975,0.0979,0.0963,0.0975,0.0976,0.0962,0.0962,0.0962,0.0986,0.0987,0.0988,0.0989,0.1021,0.1021,0.1021,0.1003,0,0,0.1022,0.1022,0,0,0,0,0,0,0,0,0.0975,0.0974,0.0973,0.0974,0.0975,0.0976,0.098,0.0978,0.0986,0.0982,0.0989,0.099,0.1008,0.101,0.1006,0.1005,0.1006,0.1022,0.1023,0.1023,0.1023,0,0,0,0,0,0,0,0.0975,0.0974,0.0962,0.0973,0.0974,0.0979,0.0979,0.098,0.099,0.0983,0.0984,0.0984,0.1009,0.1006,0.1008,0.1007,0.1022,0.1023,0.1023,0.1023,0.1076,0.1077,0,0,0,0,0,0,0.0975,0.0974,0.0962,0.0962,0.0978,0.0978,0.0978,0.0974,0.0989,0.0992,0.0984,0.0986,0.1005,0.1007,0.1009,0.1061,0.1023,0.1023,0.1023,0.1074,0.1076,0.1077,0,0,0,0,0,0,0.0975,0.0973,0.0962,0.0969,0.0968,0.0976,0.0972,0.0974,0.0996,0.099,0.0994,0.1007,0.1006,0.1008,0.1032,0.106,0.1023,0.1024,0.1073,0.1075,0.1076,0.112,0,0,0,0,0,0,0.0975,0.0973,0.0984,0.0969,0.0967,0.0971,0.0971,0.0973,0.0993,0.0996,0.101,0.1013,0.1007,0.1031,0.1032,0.106,0.1024,0.1071,0.1074,0.1076,0.1117,0.1123,0.1128,0,0,0,0,0,0.0976,0.0981,0.0984,0.0984,0.0977,0.0971,0.0972,0.0981,0.0993,0.1005,0.1017,0.1013,0.1047,0.1032,0.1033,0.1062,0.107,0.1073,0.1076,0.1115,0.1122,0.1128,0,0,0,0,0,0,0.0996,0.0983,0.0987,0.099,0.099,0.0976,0.0991,0.0994,0.1011,0.1026,0.1022,0.1025,0.106,0.1053,0.1037,0.1085,0.1061,0.1063,0.109,0.1097,0.1102,0.1099,0.1024,0,0,0,0,0,0.1004,0.1007,0.0995,0.1002,0.1004,0.1002,0.1007,0.1013,0.1018,0.1028,0.1037,0.1052,0.1065,0.1076,0.1085,0.1104,0.1103,0.1125,0.1131,0.1136,0.1135,0.1163,0.1171,0.1086,0.1086,0.1086,0,0,0.1014,0.1009,0.1012,0.1007,0.101,0.1013,0.1009,0.1023,0.1035,0.1028,0.1061,0.1073,0.1076,0.1103,0.1118,0.1103,0.116,0.1139,0.1143,0.1139,0.1166,0.1174,0.1182,0.1088,0.1087,0.1087,0,0,0.1028,0.1033,0.1038,0.1039,0.1045,0.1042,0.1051,0.1053,0.1068,0.1092,0.1096,0.1124,0.1142,0.1149,0.1153,0.1193,0.1191,0.1206,0.1229,0.1257,0.1264,0.127,0.128,0.1286,0.1206,0.1207,0.1207,0,0.1046,0.1043,0.1041,0.1045,0.1049,0.1057,0.1064,0.1075,0.1089,0.1105,0.1114,0.1158,0.1162,0.119,0.1206,0.1206,0.1217,0.1203,0.1264,0.127,0.1275,0.1284,0.129,0.1209,0.1209,0.1208,0.1208,0,0.1051,0.106,0.1066,0.107,0.1077,0.1087,0.1093,0.1117,0.114,0.1151,0.1199,0.1209,0.1236,0.1246,0.1237,0.1281,0.1275,0.127,0.1245,0.1287,0.1293,0.1299,0.1212,0.1212,0.1211,0.121,0,0,0.1058,0.1067,0.1072,0.1079,0.1091,0.1093,0.1123,0.1143,0.1171,0.1204,0.1239,0.1271,0.1291,0.1297,0.13,0.1318,0.1365,0.1314,0.1315,0.132,0.1423,0.1322,0.1319,0.1379,0.138,0.1381,0.1411,0,0.1065,0.1074,0.1078,0.1096,0.11,0.1118,0.1141,0.1168,0.12,0.1238,0.1267,0.1305,0.1306,0.133,0.1353,0.1364,0.1385,0.1357,0.1384,0.1385,0.1288,0.1324,0.1386,0.1416,0.1417,0.1418,0.1419,0,0.1061,0.1068,0.1085,0.1105,0.111,0.113,0.1171,0.1193,0.1246,0.1276,0.1325,0.1347,0.1389,0.1382,0.1432,0.142,0.1428,0.143,0.1432,0.1324,0.1295,0.1366,0.143,0.1429,0.1428,0.1428,0.1427,0,0.1049,0.107,0.1086,0.1092,0.1118,0.1143,0.1167,0.1215,0.124,0.1307,0.1339,0.1393,0.1429,0.1456,0.1472,0.1463,0.1515,0.1501,0.1416,0.1408,0.147,0.1463,0.1535,0.1535,0.1535,0.1535,0.1535,0,0.1035,0.105,0.1089,0.1095,0.1125,0.1148,0.1191,0.1226,0.1279,0.1307,0.1366,0.1392,0.1454,0.1486,0.1491,0.1472,0.1538,0.1421,0.1412,0.1488,0.1483,0.1475,0.1467,0.1536,0.1536,0.1536,0.1535,0,0.101,0.1036,0.1057,0.11,0.1119,0.1143,0.1197,0.1219,0.1284,0.1323,0.1346,0.1413,0.1452,0.1491,0.153,0.1486,0.148,0.1456,0.1533,0.1528,0.1348,0.1343,0.1357,0.1353,0.1351,0.1348,0.1346,0,0.0992,0.1003,0.1058,0.1072,0.1096,0.1138,0.1158,0.1219,0.1234,0.1316,0.1319,0.1388,0.1421,0.1395,0.1448,0.1451,0.1433,0.1416,0.1377,0.1341,0.1332,0.1331,0.1329,0.1342,0.1341,0.1341,0.134,0,0.0958,0.0993,0.101,0.104,0.1068,0.1082,0.1116,0.1119,0.1178,0.1258,0.1255,0.1268,0.1306,0.1329,0.1345,0.1343,0.1417,0.1386,0.1392,0.1355,0.1324,0.1317,0.1319,0.133,0.1332,0.1333,0.1333,0,0.0939,0.0943,0.0973,0.0988,0.1018,0.0999,0.1028,0.103,0.1054,0.1137,0.1139,0.121,0.1288,0.1273,0.1288,0.128,0.1255,0.12,0.1215,0.1226,0.1169,0.111,0.1043,0,0,0,0,0,0.0908,0.0897,0.0909,0.0907,0.0932,0.0943,0.0979,0.1004,0.1071,0.1035,0.1078,0.1103,0.1118,0.1161,0.1126,0.1234,0.1265,0.1188,0.121,0.1277,0.1288,0.1233,0,0,0,0,0,0,0.0882,0.0895,0.0884,0.0835,0.0819,0.0823,0.084,0.0882,0.0863,0.0946,0.0963,0.1032,0.1071,0.113,0.1107,0.1119,0.1106,0.1241,0.1237,0.1271,0.1281,0.129,0.1237,0,0,0,0,0]},{"header":{"parameterUnit":"m.s-1","parameterCategory":2,"la1":30.2991,"la2":30.254,"lo1":-89.0895,"lo2":-89.0444,"dy":0.0017,"dx":0.0017,"nx":28,"ny":28,"refTime":"2024-11-30T03:00:00:Z","depth":"4","parameterNumber":3,"parameterNumberName":"V-component_of_CURRENTS"},"data":[0,0,0,0,0,0,0,0,0,0,0,0,0,0,0,0,0,0,0,0,0,0,0,0,0,0,0,0,0,0,0,0,0,0,0,0,0,0,0,0,0,0,0,0,0,0,0,0,0,0,0,0,0,0,0,0,0,0,0.0196,0.0196,0,0.0196,0.0196,0.0196,0.019,0.0189,0.0189,0.0189,0.0187,0.0187,0.0187,0,0,0,0,0,0,0,0,0,0,0,0,0,0.0185,0.0185,0.0196,0.0196,0.0196,0.0196,0.0196,0.0196,0.019,0.0189,0.0189,0.0189,0.0187,0.0187,0.0187,0,0,0,0,0,0,0,0,0,0,0,0,0,0.0188,0.0186,0.0196,0.0193,0.0192,0.0196,0.0196,0.0196,0.019,0.0189,0.0189,0.0189,0.0187,0.0187,0.0187,0.0194,0,0,0.0188,0.0188,0,0,0,0,0,0,0,0,0.0188,0.0189,0.0193,0.0193,0.0192,0.0192,0.0191,0.0195,0.019,0.0191,0.0189,0.0189,0.0189,0.0189,0.019,0.0194,0.0194,0.0188,0.0188,0.0188,0.0188,0,0,0,0,0,0,0,0.0188,0.0189,0.0196,0.0193,0.0193,0.0189,0.0189,0.0192,0.0192,0.0191,0.019,0.019,0.0189,0.019,0.019,0.0194,0.0188,0.0188,0.0188,0.0188,0.0203,0.0204,0,0,0,0,0,0,0.0188,0.0188,0.0196,0.0196,0.0189,0.019,0.019,0.0193,0.0191,0.0191,0.019,0.019,0.0189,0.0189,0.019,0.0205,0.0188,0.0188,0.0189,0.0203,0.0203,0.0204,0,0,0,0,0,0,0.0188,0.0189,0.0196,0.0192,0.0192,0.019,0.0193,0.0193,0.0196,0.0191,0.019,0.0194,0.0189,0.0189,0.0197,0.0204,0.0189,0.0189,0.0203,0.0203,0.0204,0.023,0,0,0,0,0,0,0.0188,0.0189,0.0194,0.0192,0.0193,0.0202,0.0194,0.0193,0.0196,0.0196,0.0194,0.0194,0.0189,0.0197,0.0198,0.0204,0.0189,0.0202,0.0203,0.0203,0.0229,0.0231,0.0233,0,0,0,0,0,0.0187,0.0195,0.0194,0.0195,0.0199,0.0203,0.0203,0.02,0.0197,0.0202,0.0202,0.0194,0.0201,0.0198,0.0198,0.0205,0.0202,0.0203,0.0203,0.0228,0.0231,0.0233,0,0,0,0,0,0,0.0193,0.0195,0.0194,0.0202,0.0204,0.0202,0.0206,0.0204,0.0208,0.0208,0.0202,0.0201,0.021,0.0204,0.0201,0.021,0.0199,0.0199,0.0217,0.022,0.0222,0.0224,0.0189,0,0,0,0,0,0.0196,0.0204,0.0203,0.021,0.0212,0.021,0.0212,0.0211,0.0212,0.0213,0.0213,0.0211,0.0213,0.0214,0.0214,0.0222,0.0207,0.0225,0.0227,0.0229,0.0231,0.0214,0.0214,0.0206,0.0206,0.0206,0,0,0.02,0.0203,0.0206,0.0212,0.0213,0.0221,0.0211,0.0217,0.0224,0.0213,0.0225,0.0222,0.0217,0.0225,0.0228,0.0221,0.0224,0.023,0.0232,0.0232,0.0214,0.0215,0.0216,0.0206,0.0206,0.0206,0,0,0.021,0.0214,0.0223,0.0227,0.0231,0.0232,0.0235,0.0237,0.0238,0.0249,0.0241,0.0242,0.0247,0.0243,0.0242,0.0257,0.0237,0.0256,0.0271,0.0254,0.0254,0.0255,0.0236,0.0234,0.0257,0.0257,0.0257,0,0.0213,0.0226,0.0226,0.0236,0.0243,0.0238,0.025,0.0253,0.0257,0.0261,0.0256,0.0259,0.0255,0.026,0.0265,0.0262,0.0248,0.0261,0.0257,0.0257,0.0256,0.0237,0.0235,0.0258,0.0258,0.0258,0.0258,0,0.0229,0.0241,0.0248,0.026,0.0268,0.0278,0.0281,0.0288,0.0289,0.029,0.0297,0.0289,0.029,0.0287,0.0282,0.0281,0.027,0.0262,0.025,0.0259,0.0238,0.0235,0.026,0.026,0.0259,0.0259,0,0,0.0232,0.0254,0.0257,0.027,0.0282,0.0291,0.0305,0.0317,0.0328,0.0326,0.0335,0.0332,0.0324,0.0321,0.0311,0.0296,0.0282,0.0281,0.0279,0.0262,0.0243,0.0233,0.0229,0.0273,0.0273,0.0273,0.0228,0,0.0244,0.027,0.0278,0.0304,0.0318,0.0324,0.034,0.035,0.0354,0.0363,0.0348,0.0355,0.0338,0.0339,0.0322,0.0296,0.0276,0.0295,0.0236,0.0234,0.0225,0.0226,0.0272,0.0226,0.0225,0.0225,0.0224,0,0.0256,0.0274,0.0301,0.0331,0.0338,0.0355,0.038,0.0395,0.0403,0.0406,0.0402,0.039,0.0376,0.0356,0.0309,0.0322,0.0284,0.0257,0.0255,0.0235,0.022,0.0215,0.0219,0.022,0.022,0.022,0.0221,0,0.0259,0.029,0.0314,0.0324,0.0356,0.0372,0.0391,0.0409,0.043,0.0433,0.0443,0.0418,0.0413,0.0362,0.031,0.0309,0.0251,0.024,0.0193,0.0192,0.0202,0.0202,0.0198,0.0198,0.0198,0.0198,0.0199,0,0.0267,0.0287,0.032,0.0334,0.0371,0.0388,0.0427,0.0439,0.0463,0.0492,0.0468,0.0476,0.0415,0.0376,0.0317,0.025,0.0254,0.0195,0.018,0.0214,0.0216,0.0199,0.02,0.0197,0.0197,0.0198,0.0198,0,0.0265,0.0285,0.0318,0.0357,0.0374,0.0402,0.0457,0.0485,0.0502,0.0537,0.054,0.0521,0.0475,0.0404,0.0325,0.0267,0.0197,0.0169,0.0211,0.02,0.0145,0.0148,0.0111,0.011,0.0109,0.0109,0.0109,0,0.0265,0.0282,0.0335,0.0363,0.0385,0.0431,0.0469,0.0503,0.0537,0.0566,0.0583,0.0551,0.0527,0.0408,0.0328,0.0209,0.0189,0.0142,0.014,0.0147,0.0136,0.014,0.0143,0.0108,0.0107,0.0107,0.0107,0,0.0268,0.0289,0.032,0.0377,0.0422,0.0475,0.0529,0.0555,0.06,0.0611,0.0618,0.056,0.0508,0.0413,0.0321,0.0234,0.0167,0.0135,0.0136,0.0134,0.0143,0.0134,0.0138,0.0105,0.0105,0.0106,0.0106,0,0.0274,0.0295,0.034,0.0392,0.0448,0.0506,0.0535,0.0579,0.0612,0.0641,0.0642,0.0585,0.0555,0.0427,0.0343,0.0256,0.023,0.0186,0.0183,0.0184,0.0217,0.0239,0.0219,0,0,0,0,0,0.0278,0.0307,0.0353,0.0414,0.047,0.0509,0.0573,0.06,0.0638,0.0645,0.0646,0.0597,0.0482,0.0433,0.0346,0.0323,0.0209,0.0215,0.0155,0.0094,0.0096,0.0121,0,0,0,0,0,0,0.0283,0.0325,0.035,0.0423,0.0469,0.0538,0.0582,0.0611,0.0617,0.0637,0.058,0.0558,0.0448,0.0533,0.034,0.0315,0.0259,0.0166,0.0163,0.0092,0.0095,0.0097,0.0123,0,0,0,0,0]}]]